Location: Slidell
(30.2789°N, 89.7378°W)
Time: 10:34:34
(UTC-05:00)

Daily predictions for brighter satellites

Satellite Brightness Start Highest point End
(mag) Time Altitude Azimuth Time Altitude Azimuth Time Altitude Azimuth
NOSS 0 Rocket 4.2 19:48:00 10° SSW 19:54:10 78° WNW 20:00:23 10° NNE
Cosmos 2278 Rocket 3.1 19:51:03 10° N 19:56:03 31° ENE 20:01:02 10° SE
EO 1 Del DPAF 3.7 19:54:40 10° N 19:58:28 66° WNW 20:02:14 10° SSW
ASTRO E2 2.8 19:54:59 10° W 19:59:00 79° N 20:03:01 10° E
OAO 3 Rocket 3.7 19:54:36 10° SW 19:59:05 40° SSE 20:03:30 10° E
Meteor 1-27 4.2 19:55:54 10° S 20:01:36 74° E 20:07:15 10° NNE
CZ-4C R/B 3.3 19:59:06 10° SSE 20:02:12 17° ESE 20:05:27 10° ENE
Cosmos 1825 3.9 20:01:48 10° NE 20:04:11 16° ENE 20:06:33 10° ESE
Cosmos 1151 Rocket 3.4 20:00:42 10° SSE 20:04:42 42° E 20:08:44 10° NNE
Cosmos 1939 Rocket 4.3 20:05:51 10° ESE 20:08:37 19° ENE 20:11:24 10° NNE
FengYun 1-2 T 4.5 20:04:39 10° S 20:10:15 79° WSW 20:15:55 10° NNW
Cosmos 2098 Rocket 4.2 20:07:19 10° SE 20:10:48 21° E 20:13:46 10° NE
Cosmos 1408 3.8 20:09:52 10° NNE 20:12:54 23° E 20:15:40 11° SE
H-2A R/B 4.3 20:09:57 10° SSW 20:13:24 36° W 20:16:54 10° NNW
OAO 2 Rocket 4.0 20:09:03 10° WNW 20:14:08 49° SSW 20:18:56 11° SE
Hubble Space Telescope 1.7 20:14:03 10° SW 20:17:44 31° SSE 20:20:36 14° ESE
FREGAT/IRIS 3.5 20:17:32 10° S 20:20:23 48° W 20:23:14 10° NNW
Sich 1 3.7 20:16:21 10° NNW 20:20:32 56° W 20:24:43 10° S
Stardust Del rocket 4.4 20:20:34 10° SW 20:22:50 22° SSE 20:24:47 15° SE
Cosmos 1666 Rocket 4.2 20:18:47 10° NNW 20:23:09 60° W 20:27:29 10° S
Resurs 01 Rocket 2.6 20:22:04 14° SE 20:25:06 28° ENE 20:28:53 10° NNE
YAOGAN 6 3.4 20:23:49 15° SE 20:26:22 33° ENE 20:29:41 10° N
Thor Agena Rocket 3.5 20:22:31 10° NNE 20:27:48 77° ESE 20:33:05 10° S
Cosmos 1933 Rocket 3.8 20:24:58 10° N 20:29:09 45° E 20:32:56 12° SSE
SL-16 R/B 2.1 20:27:31 10° S 20:33:07 69° ESE 20:38:45 10° NNE
ERS-2 2.2 20:31:12 13° SSE 20:34:20 59° ENE 20:37:57 10° N
Aurora 2 Rocket 4.4 20:32:05 10° WSW 20:41:24 48° S 20:46:18 21° ESE
Resurs 1-3 3.8 20:43:07 21° SE 20:45:51 52° ENE 20:50:07 10° N
Cosmos 407 Rocket 4.1 20:44:37 10° N 20:49:20 36° ENE 20:51:12 27° ESE
Cosmos 2218 Rocket 4.0 20:46:14 10° S 20:52:35 89° E 20:59:00 10° N
Cosmos 2344 3.5 20:47:45 10° SSW 20:55:29 65° ESE 21:03:10 10° NE
Cosmos 2366 rocket 3.9 20:50:40 10° S 20:56:53 87° E 21:03:11 10° N
SJ-11-01 4.3 20:57:22 29° SSE 20:59:39 63° ENE 21:04:16 10° N
USA 186 2.0 21:00:49 42° W 21:00:50 42° W 21:03:03 10° NNW
SL-08 R/B 4.5 20:54:33 10° S 21:00:52 82° E 21:07:19 10° N
Cosmos 1603 4.3 20:59:44 30° SE 21:00:57 34° ESE 21:05:57 10° NE
Envisat 4.1 20:57:44 10° S 21:02:32 44° W 21:07:23 10° NNW
Cosmos 1441 Rocket 2.9 21:07:22 42° S 21:08:30 79° E 21:12:15 10° N
Cosmos 2297 3.8 21:09:04 10° N 21:14:41 57° ENE 21:16:16 43° ESE
Cosmos 676 Rocket 4.5 21:10:53 10° N 21:15:45 39° ENE 21:16:10 38° E
Cosmos 1339 Rocket 4.4 21:10:15 10° N 21:16:24 78° E 21:19:45 29° SSE
Sakura Rocket 3.4 21:14:03 10° W 21:19:14 48° SSW 21:19:40 47° S
H-2A R/B 3.3 21:21:22 24° ENE 21:21:22 24° ENE 21:24:39 10° NNE
USA 81 4.0 21:16:30 10° N 21:21:43 61° E 21:22:38 52° SE
Cosmos 1452 Rocket 3.4 21:18:57 10° SSW 21:24:11 87° WNW 21:29:28 10° NNE
BREEZE-M DEB (TANK) 4.2 21:27:09 10° NW 21:28:27 23° NNW 21:28:27 23° NNW
Cosmos 1140 Rocket 3.9 21:24:46 10° N 21:29:28 44° ENE 21:29:28 44° ENE
ATLAS 2AS CENTAUR R/B 4.3 21:28:38 10° NW 21:35:00 30° WSW 21:40:37 11° SSW
NOAA 11 4.3 21:33:44 40° S 21:35:44 74° WSW 21:41:15 10° NNW
Cosmos 1933 4.2 21:39:29 41° N 21:39:29 41° N 21:42:14 10° N
ASTRO E2 3.3 21:35:35 10° W 21:38:44 53° WNW 21:38:44 53° WNW
Cosmos 2278 Rocket 4.0 21:35:16 10° NW 21:39:55 27° WSW 21:44:01 12° SSW
OAO 3 Rocket 3.3 21:37:45 10° W 21:42:29 68° NNW 21:42:38 68° N
Cosmos 405 Rocket 4.2 21:43:27 28° WSW 21:44:36 35° W 21:48:12 10° NNW
Spot 2 Rocket 4.3 21:42:55 33° SSW 21:44:45 48° W 21:49:40 10° NNW
MetOp-B 4.5 21:47:10 51° NE 21:47:10 51° NE 21:51:46 10° N
CZ-4C R/B 3.1 21:45:20 10° SW 21:50:03 42° NW 21:55:21 10° NNE
ARGOS 3.1 21:55:18 71° NNE 21:55:18 71° NNE 22:00:12 10° N
Cosmos 1954 Rocket 4.1 21:50:59 10° NNW 21:55:34 70° N 21:55:34 70° N
Hubble Space Telescope 2.9 21:54:36 10° WSW 21:56:00 20° WSW 21:56:00 20° WSW
ATLAS 2A CENTAUR R/B 3.9 21:37:10 10° WSW 21:59:11 76° S 22:03:01 49° ESE
Resurs 01 Rocket 4.0 21:59:37 15° SW 22:01:32 19° W 22:04:39 10° NW
Cosmos 1943 Rocket 4.1 22:00:41 10° NNE 22:02:48 16° NE 22:02:48 16° NE
Cosmos 614 Rocket 4.3 21:59:31 10° NNW 22:03:58 63° NW 22:03:58 63° NW
NOSS 3-4 (A) 4.1 21:59:08 10° NW 22:06:21 64° WSW 22:07:57 52° SSW
NOSS 3-4 (C) 4.1 21:59:14 10° NW 22:06:27 64° WSW 22:08:01 53° SSW
ERS-1 Rocket 3.9 22:09:44 42° N 22:09:44 42° N 22:13:04 10° N
Lacrosse 5 3.9 22:08:45 10° N 22:11:23 19° NNE 22:11:23 19° NNE
Cosmos 1000 Rocket 4.5 22:08:10 10° N 22:14:08 80° NW 22:14:08 80° NW
Cosmos 1821 Rocket 4.3 22:14:57 55° SW 22:16:00 63° W 22:22:15 10° N
Cosmos 1943 4.5 22:44:56 36° NNW 22:44:56 36° NNW 22:48:37 10° N
Cosmos 2369 Rocket 3.7 22:49:54 10° NNW 22:52:46 31° NNW 22:52:46 31° NNW
H-2A R/B 4.2 23:01:59 21° WNW 23:01:59 21° WNW 23:04:08 10° NW
Terra 4.5 23:06:29 15° N 23:06:29 15° N 23:07:20 10° N
ATLAS 5 CENTAUR R/B 3.7 23:00:09 10° NNW 23:03:41 36° NNW 23:03:41 36° NNW
